Glendive, MT

3:32 AM MST on December 14, 2019 (GMT -0700)
Dawson Community

Weather History for KGDV - October, 2019

Change the Weather History Date:

Wednesday, October 9, 2019

  Actual Average Record
Temperature  
Mean Temperature 30 °F -  
Max Temperature 34 °F 59 °F 82 °F (2004)
Min Temperature 25 °F 34 °F 19 °F (2019)
Degree Days  
Heating Degree Days 35    
Month to date heating degree days 182  
Year to date heating degree days 6049  
Moisture  
Dew Point 26 °F    
Average Humidity 90    
Maximum Humidity 96    
Minimum Humidity 81    
Precipitation  
Precipitation T in - - ()
Month to date precipitation 0.37  
Year to date precipitation 17.54  
Sea Level Pressure  
Sea Level Pressure 30.14 in    
Wind  
Wind Speed 20 mph (North)    
Max Wind Speed 25 mph    
Max Gust Speed 33 mph    
Visibility 5 miles    
Events Snow    
Averages and records for this station are not official NWS values.
T = Trace of Precipitation, MM = Missing Value Source: NWS Daily Summary

Daily Weather History Graph

Daily Weather History Graph

Search for Another Location

Airport or City:

Astronomy

Oct. 09, 2019 Rise Set
Actual Time 7:08 AM MDT 6:23 PM MDT
Civil Twilight 6:38 AM MDT 6:53 PM MDT
Nautical Twilight 6:02 AM MDT 7:29 PM MDT
Astronomical Twilight 5:27 AM MDT 8:04 PM MDT
Moon 5:16 PM MDT (10/9) 2:35 AM MDT (10/9)
Length of Visible Light 12h 15m
Length of Day
11h 14m
Waxing Gibbous, 85% of the Moon is Illuminated
Oct 9
Waxing Gibbous
Oct 13
Full
Oct 21
Last Quarter
Oct 27
New
Nov 4
First Quarter

Hourly Weather History & Observations

Time (MDT) Temp. Windchill Dew Point Humidity Pressure Visibility Wind Dir Wind Speed Gust Speed Precip Events Conditions
12:56 AM 34.0 °F 22.7 °F 28.9 °F 82% 29.87 in 10.0 mi North 19.6 mph 27.6 mph N/A   Overcast
1:17 AM 33.8 °F 22.2 °F 28.4 °F 81% 29.88 in 10.0 mi North 20.7 mph 25.3 mph N/A   Overcast
1:56 AM 34.0 °F 23.0 °F 28.9 °F 82% 29.89 in 10.0 mi North 18.4 mph 27.6 mph N/A   Overcast
2:56 AM 33.1 °F 20.9 °F 28.9 °F 85% 29.88 in 10.0 mi North 21.9 mph 28.8 mph N/A   Overcast
3:56 AM 33.1 °F 21.2 °F 28.9 °F 85% 29.89 in 10.0 mi North 20.7 mph 25.3 mph N/A   Overcast
4:56 AM 32.0 °F 20.1 °F 28.0 °F 85% 29.92 in 10.0 mi North 19.6 mph 26.5 mph 0.00 in   Overcast
5:56 AM 30.9 °F 19.4 °F 27.0 °F 85% 29.97 in 10.0 mi North 17.3 mph - 0.00 in   Overcast
6:56 AM 30.0 °F 17.9 °F 27.0 °F 88% 29.98 in 10.0 mi North 18.4 mph - N/A   Overcast
7:56 AM 30.0 °F 16.9 °F 26.1 °F 85% 30.01 in 10.0 mi North 21.9 mph 27.6 mph N/A   Overcast
8:56 AM 28.9 °F 15.8 °F 27.0 °F 92% 30.05 in 5.0 mi NNW 20.7 mph - 0.00 in   Overcast
9:36 AM 28.4 °F 14.4 °F 26.6 °F 93% 30.00 in 2.5 mi North 23.0 mph - 0.00 in   Overcast
9:56 AM 28.9 °F 15.1 °F 27.0 °F 92% 30.08 in 2.5 mi NNW 23.0 mph 28.8 mph 0.00 in   Overcast
10:17 AM 28.4 °F 14.1 °F 26.6 °F 93% 30.01 in 3.0 mi North 24.2 mph 32.2 mph 0.00 in   Overcast
10:56 AM 28.9 °F 14.5 °F 27.0 °F 92% 30.09 in 5.0 mi North 25.3 mph 31.1 mph 0.00 in   Overcast
11:56 AM 28.9 °F 14.5 °F 26.1 °F 89% 30.12 in 3.0 mi North 25.3 mph 32.2 mph 0.00 in   Overcast
12:13 PM 28.4 °F 13.8 °F 26.6 °F 93% 30.04 in 2.0 mi North 25.3 mph 33.4 mph 0.00 in   Overcast
12:56 PM 28.9 °F 15.4 °F 27.0 °F 92% 30.14 in 3.0 mi North 21.9 mph 28.8 mph 0.00 in   Overcast
1:56 PM 28.9 °F 14.8 °F 27.0 °F 92% 30.14 in 8.0 mi North 24.2 mph - 0.00 in   Overcast
2:56 PM 28.9 °F 15.1 °F 26.1 °F 89% 30.16 in 6.0 mi North 23.0 mph 29.9 mph 0.00 in Snow Light Snow
3:16 PM 28.4 °F 15.1 °F 26.6 °F 93% 30.09 in 4.0 mi North 20.7 mph 29.9 mph 0.00 in Snow Light Snow
3:56 PM 28.9 °F 16.5 °F 26.1 °F 89% 30.19 in 9.0 mi North 18.4 mph - 0.00 in Snow Light Snow
4:56 PM 28.0 °F 14.9 °F 25.0 °F 88% 30.24 in 9.0 mi North 19.6 mph 27.6 mph 0.00 in Snow Light Snow
5:28 PM 28.4 °F 16.2 °F 26.6 °F 93% 30.16 in 3.0 mi North 17.3 mph 21.9 mph 0.00 in Snow Light Snow
5:56 PM 27.0 °F 12.5 °F 24.1 °F 89% 30.27 in 2.0 mi North 23.0 mph 31.1 mph 0.00 in Snow Light Snow
6:09 PM 26.6 °F 13.4 °F 24.8 °F 93% 30.19 in 1.5 mi North 18.4 mph 24.2 mph 0.00 in Snow Light Snow
6:18 PM 26.6 °F 14.3 °F 24.8 °F 93% 30.20 in 0.8 mi North 16.1 mph - 0.00 in Snow Light Snow
6:32 PM 26.6 °F 14.3 °F 24.8 °F 93% 30.21 in 0.8 mi North 16.1 mph - 0.00 in Snow Light Snow
6:38 PM 26.6 °F 12.4 °F 24.8 °F 93% 30.21 in 1.0 mi North 21.9 mph 27.6 mph 0.00 in Snow Light Snow
6:47 PM 26.6 °F 13.4 °F 24.8 °F 93% 30.21 in 1.8 mi North 18.4 mph - 0.00 in Snow Light Snow
6:56 PM 26.1 °F 12.7 °F 25.0 °F 96% 30.32 in 2.0 mi North 18.4 mph - 0.00 in Snow Light Snow
7:10 PM 26.6 °F 13.4 °F 24.8 °F 93% 30.24 in 1.5 mi North 18.4 mph 24.2 mph 0.00 in Snow Light Snow
7:27 PM 26.6 °F 12.7 °F 24.8 °F 93% 30.24 in 1.8 mi North 20.7 mph 26.5 mph 0.00 in Snow Light Snow
7:40 PM 26.6 °F 15.7 °F 24.8 °F 93% 30.25 in 2.0 mi North 12.7 mph - 0.00 in Snow Light Snow
7:56 PM 26.1 °F 14.5 °F 24.1 °F 92% 30.35 in 2.5 mi North 13.8 mph - 0.00 in Snow Light Snow
8:20 PM 26.6 °F 15.2 °F 24.8 °F 93% 30.25 in 2.5 mi NNW 13.8 mph - 0.00 in Snow Light Snow
8:56 PM 26.1 °F 13.6 °F 25.0 °F 96% 30.37 in 2.5 mi NNW 16.1 mph 20.7 mph 0.00 in Snow Light Snow
9:10 PM 26.6 °F 14.7 °F 24.8 °F 93% 30.28 in 3.0 mi NNW 15.0 mph - 0.00 in Snow Light Snow
9:56 PM 26.1 °F 12.7 °F 24.1 °F 92% 30.40 in 3.0 mi North 18.4 mph - 0.00 in Snow Light Snow
10:56 PM 25.0 °F 13.6 °F 23.0 °F 92% 30.42 in 5.0 mi NNW 12.7 mph - 0.00 in Snow Light Snow
11:56 PM 25.0 °F 14.8 °F 21.9 °F 88% 30.42 in 10.0 mi NNW 10.4 mph - 0.00 in   Overcast